FLOCK 4V-18 (46597 NORAD) Tracking and Keplerian Element Data

This shows tracking and keplerian element data for the satellite.

Feedback or suggestion? Click here.




ElementValue
Catalog46597
NameFLOCK 4V-18
Epoch Orbit368
Epoch Day304.73596634
Epoch Year2020
RAAN16.8097
Inclination97.471
Eccentricity0.0008624
Argument of Perigee42.4052
Mean Anonmoly317.7843
Mean Motion15.14877653
Decay Rate7.63E-06
L11 46597U 20061BG 20304.73596634 .00000763 00000-0 44531-4 0 9999
L22 46597 97.4710 16.8097 0008624 42.4052 317.7843 15.14877653 3686

Live tracking and technical data element details for FLOCK 4V-18 (NORAD 46597). FLOCK 4V-18 can be tracked NOW for your location showing map with azimuth and elevation plus other details from your city location.

Track the satellite on the map from your city or location and see movement details for azimuth, elevation, latitude, longitude, range, height, and movement on the map or in text.







IsCatalogInMostPopularTable: catalog: 46597, numindb: 3
Update: records affected: 1



GetName: 46597 FLOCK 4V-18

Hit Count: updated at: Sat, 31 Oct 2020 09:23:33 GMT